Home   Weather   Pointe-à-Pitre   Past weeks

Flag for Guadeloupe Past Weather in Pointe-à-Pitre, Guadeloupe — Yesterday and Last 2 Weeks

Now
86 °F

Passing clouds.


Feels Like: 93 °F
Forecast: 76 / 83 °F
Wind: 14 mph from Southeast

Location: Le Raizet - Guadeloupe

Current Time: Sep 29, 2016 at 2:53:59 PM

Latest Report: Sep 29, 2016 at 2:00 PM


Visibility: N/A

Pressure: 29.92 "Hg

Humidity: 66%

Dew Point: 73 °F

Location of Pointe-à-PitreLocation

Past Weather in Pointe-à-Pitre — Graph

°F

Pointe-à-Pitre Temperature Yesterday

Maximum temperature yesterday: 84 °F (at 8:00 AM)
Minimum temperature yesterday: 77 °F (at 1:00 PM)
Average temperature yesterday: 80 °F

High & Low Weather Summary for the Past Weeks

 TemperatureHumidityPressure
High90 °F (Sep 14, 1:30 PM)100% (Sep 15, 5:30 AM)30.04 "Hg (Sep 15, 5:30 AM)
Low73 °F (Sep 21, 3:30 AM)52% (Sep 21, 2:00 PM)29.83 "Hg (Sep 21, 2:00 AM)
Average81 °F81%29.93 "Hg
* Reported Sep 14 1:00 PM — Sep 29 1:30 PM, Pointe-à-Pitre, Weather by CustomWeather, © 2016

Note: Actual official high and low records may vary slightly from our data, if they occured in-between our weather recording intervals... More about our weather records

Advertising

Pointe-à-Pitre Weather History for the Previous 24 Hours

Scroll right to see more
 ConditionsComfort  
Time TempWeatherWind HumidityBarometerVisibility
1:30 PM
Thu, Sep 29
86 °FPassing clouds.14 mph66%29.95 "HgN/A
1:00 PM86 °FBroken clouds.13 mph70%29.95 "HgN/A
12:30 PM86 °FPassing clouds.15 mph66%29.95 "HgN/A
12:00 PM84 °FPassing clouds.13 mph70%29.95 "HgN/A
11:30 AM84 °FClear.14 mph70%29.98 "HgN/A
11:00 AM84 °FPassing clouds.16 mph70%29.98 "HgN/A
10:30 AM84 °FPartly sunny.15 mph70%29.98 "HgN/A
10:00 AM84 °FPartly sunny.10 mph74%29.98 "HgN/A
9:30 AM84 °FBroken clouds.16 mph70%29.98 "HgN/A
9:00 AM84 °FBroken clouds.14 mph70%29.98 "HgN/A
8:30 AM82 °FMostly cloudy.10 mph79%29.98 "HgN/A
8:00 AM82 °FMostly cloudy.7 mph79%29.95 "HgN/A
7:30 AM82 °FPartly sunny.12 mph79%29.92 "HgN/A
7:00 AM82 °FPartly sunny.13 mph79%29.92 "HgN/A
6:30 AM82 °FPartly sunny.12 mph79%29.89 "Hg4 mi
6:00 AM82 °FCloudy.10 mph79%29.92 "Hg5 mi
5:30 AM81 °FOvercast.12 mph84%29.89 "Hg4 mi
5:00 AM81 °FMostly cloudy.10 mph84%29.89 "Hg4 mi
4:30 AM79 °FMostly cloudy.7 mph89%29.89 "Hg4 mi
4:00 AM79 °FPassing clouds.7 mph89%29.89 "Hg4 mi
3:30 AM77 °FPassing clouds.8 mph94%29.89 "Hg4 mi
3:00 AM77 °FFog.9 mph94%29.89 "Hg3 mi
2:30 AM77 °FPartly cloudy.10 mph94%29.89 "Hg4 mi
2:00 AM75 °FLight rain. Fog.13 mph94%29.92 "Hg1 mi
1:30 AM75 °FHeavy rain. Fog.14 mph94%29.92 "Hg1 mi
1:00 AM82 °FLight rain. Passing clouds.14 mph79%29.92 "HgN/A
12:30 AM82 °FPartly cloudy.16 mph79%29.92 "HgN/A
12:00 AM82 °FPartly cloudy.13 mph79%29.92 "HgN/A
11:30 PM
Wed, Sep 28
82 °FOvercast.14 mph74%29.92 "HgN/A
11:00 PM82 °FMostly cloudy.14 mph70%29.95 "HgN/A
10:30 PM82 °FClear.13 mph70%29.95 "HgN/A
10:00 PM82 °FPassing clouds.17 mph74%29.95 "HgN/A
9:30 PM81 °FPartly cloudy.17 mph79%29.95 "HgN/A
9:00 PM81 °FPartly cloudy.16 mph84%29.95 "HgN/A
8:30 PM81 °FPassing clouds.15 mph84%29.92 "HgN/A
8:00 PM81 °FPartly cloudy.20 mph79%29.92 "HgN/A
7:30 PM79 °FPartly cloudy.20 mph89%29.89 "Hg6 mi
7:00 PM79 °FPassing clouds.17 mph89%29.92 "Hg5 mi
6:30 PM77 °FLight rain. Fog.24 mph89%29.92 "Hg3 mi
6:00 PM81 °FPassing clouds.21 mph79%29.89 "HgN/A
5:30 PM81 °FPartly sunny.22 mph79%29.89 "HgN/A
5:00 PM79 °FBroken clouds.16 mph89%29.89 "Hg4 mi
4:30 PM77 °FRain. Fog.24 mph89%29.89 "Hg2 mi
4:00 PM81 °FPartly sunny.20 mph84%29.86 "HgN/A
3:30 PM81 °FPartly sunny.20 mph84%29.86 "HgN/A
3:00 PM79 °FBroken clouds.16 mph89%29.83 "Hg6 mi
2:30 PM79 °FLight rain. Fog.18 mph89%29.86 "Hg3 mi
2:00 PM79 °FLight rain. Partly sunny.22 mph89%29.89 "Hg4 mi
Weather by CustomWeather, © 2016

See weather overviewHow to use our weather pages